#timestamp,LO_Frequency,Hit,Temp,Hum 
1479103215.4,286046985.6,N,0.0,0.0
1479103235.3,286046985.7,N,0.0,0.0
1479103255.1,286046984.0,N,0.0,0.0
1479103275.8,286046986.7,N,0.0,0.0
1479103295.7,286046985.8,N,0.0,0.0
1479103315.5,286046985.9,N,0.0,0.0
1479103335.3,286046985.8,N,0.0,0.0
1479103355.2,286046986.1,N,0.0,0.0
1479103375.0,286046984.5,N,0.0,0.0
1479103375.9,286046984.5,N,0.0,0.0
1479103395.8,286046986.4,N,0.0,0.0
1479103415.6,286046986.0,N,0.0,0.0
1479103435.4,286046985.7,N,0.0,0.0
1479103455.3,286046986.6,N,0.0,0.0
1479103475.1,286046986.1,N,0.0,0.0
1479103495.9,286046983.9,N,0.0,0.0
1479103515.7,286046986.3,N,0.0,0.0
1479103535.5,286046985.9,N,0.0,0.0
1479103555.4,286046985.5,N,0.0,0.0
1479103575.2,286046987.9,N,0.0,0.0
1479103595.0,286046986.4,N,0.0,0.0
1479103595.9,286046986.4,N,0.0,0.0
1479103615.8,286046987.8,N,0.0,0.0
1479103635.6,286046985.5,N,0.0,0.0
1479103655.5,286046986.1,N,0.0,0.0
1479103675.3,286046986.5,N,0.0,0.0
1479103695.1,286046985.7,N,0.0,0.0
1479103715.9,286046986.3,N,0.0,0.0
1479103735.7,286046986.4,N,0.0,0.0
1479103755.5,286046984.0,N,0.0,0.0
1479103775.4,286046985.0,N,0.0,0.0
1479103795.2,286046984.7,N,0.0,0.0
1479103815.0,286046985.0,N,0.0,0.0
1479103816.0,286046985.0,N,0.0,0.0
1479103835.8,286046984.2,N,0.0,0.0
1479103855.6,286046985.5,N,0.0,0.0
1479103875.5,286046985.7,N,0.0,0.0
1479103895.3,286046985.7,N,0.0,0.0
1479103915.1,286046988.4,N,0.0,0.0
1479103935.9,286046990.0,N,0.0,0.0
1479103955.7,286046983.0,N,0.0,0.0
1479103975.5,286046985.2,N,0.0,0.0
1479103995.4,286046985.0,N,0.0,0.0
1479104015.2,286046983.9,N,0.0,0.0
1479104035.1,286047014.0,N,0.0,0.0
1479104036.0,286047014.0,N,0.0,0.0
1479104055.8,286046984.1,N,0.0,0.0
1479104075.6,286046989.5,N,0.0,0.0
1479104095.5,286046984.1,N,0.0,0.0
1479104115.3,286046986.6,N,0.0,0.0
1479104135.2,286046986.8,N,0.0,0.0
1479104155.9,286046983.7,N,0.0,0.0
1479104175.7,286046985.3,N,0.0,0.0
1479104195.6,286046985.3,N,0.0,0.0
1479104215.4,286046986.0,N,0.0,0.0
1479104235.2,286046984.5,N,0.0,0.0
1479104255.1,286046986.0,N,0.0,0.0
1479104256.0,286046986.0,N,0.0,0.0
1479104275.8,286046985.6,N,0.0,0.0
1479104295.7,286046986.2,N,0.0,0.0
1479104315.5,286046985.8,N,0.0,0.0
1479104335.3,286046986.1,N,0.0,0.0
1479104355.2,286046985.9,N,0.0,0.0
1479104375.9,286046985.4,N,0.0,0.0
1479104395.7,286046987.1,N,0.0,0.0
1479104415.6,286046987.7,N,0.0,0.0
1479104435.4,286046987.6,N,0.0,0.0
1479104455.2,286046987.7,N,0.0,0.0
1479104475.1,286046989.9,N,0.0,0.0
1479104476.0,286046989.9,N,0.0,0.0
1479104495.8,286046989.0,N,0.0,0.0
1479104515.7,286046988.6,N,0.0,0.0
1479104535.5,286046991.6,N,0.0,0.0
1479104555.3,286046991.5,N,0.0,0.0
1479104575.2,286046987.3,N,0.0,0.0
1479104595.0,286046987.4,N,0.0,0.0
1479104595.9,286046987.4,N,0.0,0.0
1479104615.8,286046989.9,N,0.0,0.0
1479104635.6,286046988.0,N,0.0,0.0
1479104655.4,286046987.6,N,0.0,0.0
1479104675.3,286046985.4,N,0.0,0.0
1479104695.1,286046985.4,N,0.0,0.0
1479104715.8,286046988.2,N,0.0,0.0
1479104735.7,286046986.5,N,0.0,0.0
1479104755.5,286046986.1,N,0.0,0.0
1479104775.4,286046986.3,N,0.0,0.0
1479104795.2,286046983.9,N,0.0,0.0
1479104815.0,286046984.7,N,0.0,0.0
1479104815.9,286046984.7,N,0.0,0.0
1479104835.8,286046984.2,N,0.0,0.0
1479104855.6,286046982.9,N,0.0,0.0
1479104875.4,286046984.4,N,0.0,0.0
1479104895.3,286046984.3,N,0.0,0.0
1479104915.1,286046984.6,N,0.0,0.0
1479104935.9,286046985.1,N,0.0,0.0
1479104955.7,286046980.2,N,0.0,0.0
1479104975.5,286046980.2,N,0.0,0.0
1479104995.4,286046983.1,N,0.0,0.0
1479105015.2,286046995.7,N,0.0,0.0
1479105035.0,286046985.3,N,0.0,0.0
1479105035.9,286046985.3,N,0.0,0.0
1479105055.8,286046985.1,N,0.0,0.0
1479105075.6,286046984.1,N,0.0,0.0
1479105095.5,286046983.9,N,0.0,0.0
1479105115.3,286046985.2,N,0.0,0.0
1479105135.1,286046984.4,N,0.0,0.0
1479105155.9,286046985.1,N,0.0,0.0
1479105175.7,286046985.0,N,0.0,0.0
1479105195.5,286046986.2,N,0.0,0.0
1479105215.4,286046986.6,N,0.0,0.0
1479105235.2,286046986.7,N,0.0,0.0
1479105255.0,286046983.9,N,0.0,0.0
1479105256.0,286046983.9,N,0.0,0.0
1479105275.8,286046984.2,N,0.0,0.0
1479105295.6,286046984.8,N,0.0,0.0
1479105315.5,286046991.0,N,0.0,0.0
1479105335.3,286046982.7,N,0.0,0.0
1479105355.1,286046987.4,N,0.0,0.0
1479105375.9,286046982.9,N,0.0,0.0
1479105395.7,286046985.0,N,0.0,0.0
1479105415.5,286046982.6,N,0.0,0.0
1479105435.4,286046982.2,N,0.0,0.0
1479105455.2,286046986.6,N,0.0,0.0
1479105475.1,286046982.6,N,0.0,0.0
1479105476.0,286046982.6,N,0.0,0.0
1479105495.8,286046982.8,N,0.0,0.0
1479105515.6,286046982.6,N,0.0,0.0
1479105535.5,286046983.2,N,0.0,0.0
1479105555.3,286046983.3,N,0.0,0.0
1479105575.1,286046996.2,N,0.0,0.0
1479105595.9,286046985.2,N,0.0,0.0
1479105615.7,286046985.5,N,0.0,0.0
1479105635.6,286046983.2,N,0.0,0.0
1479105655.4,286046983.3,N,0.0,0.0
1479105675.2,286046988.4,N,0.0,0.0
1479105695.1,286046986.8,N,0.0,0.0
1479105696.0,286046986.8,N,0.0,0.0
1479105715.8,286046985.7,N,0.0,0.0
1479105735.6,286046984.2,N,0.0,0.0
1479105755.5,286046986.6,N,0.0,0.0
1479105775.3,286046985.3,N,0.0,0.0
1479105795.2,286046989.3,N,0.0,0.0
1479105815.9,286046985.3,N,0.0,0.0
1479105835.7,286046987.5,N,0.0,0.0
1479105855.6,286046989.8,N,0.0,0.0
1479105875.4,286046985.5,N,0.0,0.0
1479105895.2,286046989.2,N,0.0,0.0
1479105915.1,286046990.0,N,0.0,0.0
1479105916.0,286046990.0,N,0.0,0.0
1479105935.8,286046991.6,N,0.0,0.0
1479105955.7,286046991.8,N,0.0,0.0
1479105975.5,286046987.4,N,0.0,0.0
1479105995.3,286046985.8,N,0.0,0.0
1479106015.2,286046987.5,N,0.0,0.0
1479106035.9,286046988.2,N,0.0,0.0
1479106055.7,286046985.9,N,0.0,0.0
1479106075.6,286046986.3,N,0.0,0.0
1479106095.4,286046983.7,N,0.0,0.0
1479106115.2,286046985.3,N,0.0,0.0
1479106135.1,286046986.1,N,0.0,0.0
1479106136.0,286046986.1,N,0.0,0.0
1479106155.8,286046984.2,N,0.0,0.0
1479106175.7,286046986.5,N,0.0,0.0
1479106195.5,286046988.0,N,0.0,0.0
1479106215.3,286046982.9,N,0.0,0.0
1479106235.2,286046983.3,N,0.0,0.0
1479106255.0,286046987.3,N,0.0,0.0
1479106255.9,286046987.3,N,0.0,0.0
1479106275.8,286046977.8,N,0.0,0.0
1479106295.6,286046981.3,N,0.0,0.0
1479106315.4,286046983.6,N,0.0,0.0
1479106335.3,286046981.2,N,0.0,0.0
1479106355.1,286046983.0,N,0.0,0.0
1479106375.8,286046979.4,N,0.0,0.0
1479106395.7,286046975.8,N,0.0,0.0
1479106415.5,286046974.2,N,0.0,0.0
1479106435.4,286046981.5,N,0.0,0.0
1479106455.2,286046979.1,N,0.0,0.0
1479106475.0,286046982.0,N,0.0,0.0
1479106475.9,286046982.0,N,0.0,0.0
1479106495.8,286046977.9,N,0.0,0.0
1479106515.6,286046980.4,N,0.0,0.0
1479106535.4,286046977.9,N,0.0,0.0
1479106555.3,286046980.4,N,0.0,0.0
1479106575.1,286046979.8,N,0.0,0.0
1479106595.9,286046978.5,N,0.0,0.0
1479106615.7,286046976.3,N,0.0,0.0
1479106635.5,286046975.8,N,0.0,0.0
1479106655.4,286046978.7,N,0.0,0.0
1479106675.2,286046976.1,N,0.0,0.0
1479106695.0,286046973.2,N,0.0,0.0
1479106695.9,286046973.2,N,0.0,0.0
1479106715.8,286046976.1,N,0.0,0.0
1479106735.6,286046976.0,N,0.0,0.0
1479106755.5,286046974.5,N,0.0,0.0
1479106775.3,286046973.5,N,0.0,0.0
1479106795.1,286046972.8,N,0.0,0.0
